Home > Weather > Oranjestad > Past weeks

Flag for Aruba Past Weather in Oranjestad, Aruba — Yesterday and Last 2 Weeks

Now
82 °F

Passing clouds.


Feels Like: 89 °F
Forecast: 81 / 90 °F
Wind: 15 mph from Southeast

Location: Queen Beatrix Airport - Aruba

Current Time: Jul 26, 2016 at 4:42:28 AM

Latest Report: Jul 26, 2016 at 3:00 AM


Visibility: N/A

Pressure: 29.86 "Hg

Humidity: 79%

Dew Point: 75 °F

Location of OranjestadLocation

Past Weather in Oranjestad — Graph

°F

Oranjestad Temperature Yesterday

Maximum temperature yesterday: 90 °F (at 11:00 AM)
Minimum temperature yesterday: 82 °F (at 12:00 AM)
Average temperature yesterday: 85 °F

High & Low Weather Summary for the Past Weeks

 TemperatureHumidityPressure
High91 °F (Jul 11, 3:00 PM)94% (Jul 15, 5:00 AM)29.98 "Hg (Jul 15, 5:00 AM)
Low77 °F (Jul 15, 7:00 AM)59% (Jul 23, 2:00 PM)29.83 "Hg (Jul 15, 4:00 PM)
Average85 °F76%29.90 "Hg
* Reported Jul 11 2:00 AM — Jul 26 2:00 AM, Oranjestad, Weather by CustomWeather, © 2016

Note: Actual official high and low records may vary slightly from our data, if they occured in-between our weather recording intervals... More about our weather records

Advertising

Oranjestad Weather History for the Previous 24 Hours

Scroll right to see more
 ConditionsComfort  
Time TempWeatherWind HumidityBarometerVisibility
2:00 AM
Tue, Jul 26
82 °FPassing clouds.17 mph79%29.86 "HgN/A
12:00 AM82 °FPassing clouds.16 mph79%29.89 "HgN/A
11:00 PM
Mon, Jul 25
82 °FPassing clouds.15 mph79%29.92 "HgN/A
10:00 PM82 °FPassing clouds.17 mph79%29.89 "HgN/A
9:00 PM84 °FPassing clouds.20 mph74%29.89 "HgN/A
8:00 PM84 °FPassing clouds.17 mph74%29.86 "HgN/A
7:00 PM84 °FScattered clouds.20 mph79%29.86 "HgN/A
6:00 PM86 °FScattered clouds.21 mph75%29.86 "HgN/A
5:00 PM88 °FScattered clouds.21 mph70%29.83 "HgN/A
4:00 PM90 °FPassing clouds.22 mph67%29.86 "HgN/A
3:00 PM90 °FPassing clouds.22 mph63%29.86 "HgN/A
2:00 PM88 °FScattered clouds.10 mph66%29.89 "HgN/A
1:00 PM90 °FScattered clouds.18 mph67%29.89 "HgN/A
12:00 PM90 °FScattered clouds.20 mph67%29.92 "HgN/A
11:00 AM90 °FScattered clouds.22 mph63%29.92 "HgN/A
10:00 AM88 °FScattered clouds.18 mph66%29.92 "HgN/A
9:00 AM86 °FPassing clouds.24 mph70%29.92 "HgN/A
8:00 AM84 °FPassing clouds.18 mph74%29.92 "HgN/A
7:00 AM82 °FPassing clouds.13 mph74%29.89 "HgN/A
6:00 AM82 °FPassing clouds.14 mph79%29.89 "HgN/A
5:00 AM82 °FPassing clouds.16 mph74%29.86 "HgN/A
4:00 AM82 °FPassing clouds.14 mph79%29.86 "HgN/A
Weather by CustomWeather, © 2016

See weather overviewHow to use our weather pages